Regional Weather Roundup
Issued by NWS Little Rock, AR

Home | Current Version | Previous Version | Text Only | Print | Product List | Glossary On
Versions: 1 2 3 4 5 6 7 8 9 10 11 12 13 14 15 16 17 18 19 20 21 22 23 24 25 26 27 28 29 30 31 32
000
ASUS44 KLZK 190205
RWRLZK

WEATHER ROUNDUP FOR ARKANSAS
NATIONAL WEATHER SERVICE LITTLE ROCK AR
800 PM CST THU JAN 18 2018

NOTE: "FAIR" INDICATES FEW OR NO CLOUDS BELOW 12,000 FEET WITH NO
SIGNIFICANT WEATHER AND/OR OBSTRUCTIONS TO VISIBILITY.

ARZ001-003-010-029-190300-
NORTHWEST ARKANSAS

CITY           SKY/WX    TMP DP  RH WIND       PRES   REMARKS
FAYETTEVILLE   CLOUDY    33   6  32 SW7       30.24F WCI  27
FORT SMITH     CLOUDY    31  11  43 NE3       30.29R
HARRISON       CLEAR     31   6  35 S7        30.23F WCI  24
BENTONVILLE    CLEAR     33   8  35 S8        30.23F WCI  26
ROGERS         CLOUDY    32  10  40 S8        30.22F WCI  25
SILOAM SPGS    CLEAR     32  10  40 S8          N/A  WCI  25
HIGHFILL       CLOUDY    28   8  43 S7        30.21F WCI  21
SPRINGDALE     CLEAR     32   3  29 S7        30.24F WCI  26
$$

ARZ004-005-016-190300-
NORTH CENTRAL ARKANSAS

CITY           SKY/WX    TMP DP  RH WIND       PRES   REMARKS
BATESVILLE     CLEAR     30  18  60 S7        30.33F WCI  23
FLIPPIN        CLEAR     35   7  31 S7        30.27S WCI  29
MTN HOME       CLEAR     34   7  32 SW9       30.25R WCI  27
$$

ARZ040-041-190300-
WEST CENTRAL ARKANSAS

CITY           SKY/WX    TMP DP  RH WIND       PRES   REMARKS
MENA           CLOUDY    32  12  43 CALM      30.30F
MOUNT IDA      CLEAR     30  12  47 CALM      30.30F
$$

ARZ009-017-025-026-028-190300-
NORTHEAST ARKANSAS

CITY           SKY/WX    TMP DP  RH WIND       PRES   REMARKS
JONESBORO      FAIR      27  21  78 S6        30.34F WCI  20
NEWPORT        FAIR      27  22  81 S12       30.35F WCI  17
WALNUT RIDGE   FAIR      28  21  75 S14       30.33S WCI  17
BLYTHEVILLE    FAIR      21  17  84 SW8       30.36F WCI  11
$$

ARZ022-023-033-042-044-190300-
CENTRAL ARKANSAS

CITY           SKY/WX    TMP DP  RH WIND       PRES   REMARKS
LITTLE ROCK    CLEAR     29  14  53 S8        30.37S WCI  21
N LITTLE ROCK    N/A     33  16  50 S6        30.32F WCI  27
JACKSONVILLE   CLOUDY    29  19  64 SE3       30.34F
SEARCY         FAIR      27  20  75 SE5       30.36F WCI  22
HOT SPRINGS    CLEAR     33  13  43 CALM      30.35F
RUSSELLVILLE   CLEAR     29  12  49 SE3       30.31S
CLINTON        FAIR      23  14  68 CALM      30.33S
$$

ARZ036-190300-
EAST ARKANSAS

CITY           SKY/WX    TMP DP  RH WIND       PRES   REMARKS
WEST MEMPHIS   FAIR      25  19  78 S7        30.37F WCI  17
$$

ARZ050-053-066-070-073-190300-
SOUTHWEST ARKANSAS

CITY           SKY/WX    TMP DP  RH WIND       PRES   REMARKS
ARKADELPHIA    FAIR      25  20  81 CALM      30.39S
CAMDEN         FAIR      27  16  63 CALM      30.39S
TEXARKANA      CLEAR     34  16  47 S8        30.37F WCI  27
EL DORADO      FAIR      26  20  77 CALM      30.39F
DE QUEEN       CLEAR     26  15  63 SE3       30.34F
$$

ARZ056-057-069-190300-
SOUTHEAST ARKANSAS

CITY           SKY/WX    TMP DP  RH WIND       PRES   REMARKS
PINE BLUFF     FAIR      27  23  85 S3        30.39F
STUTTGART      FAIR      30  22  72 S12       30.37F WCI  20
MONTICELLO     FAIR      30  17  58 S3        30.39S

$$






USA.gov is the U.S. government's official web portal to all federal, state and local government web resources and services.